Regional Weather Roundup
Issued by NWS

Home | Current Version | Previous Version | Graphics & Text | Print | Product List | Glossary On
Versions: 1 2 3 4 5 6 7 8 9 10 11 12 13 14 15 16 17 18 19 20 21 22 23 24 25 26 27 28 29 30 31 32 33 34 35 36 37 38 39 40 41 42 43 44 45 46 47 48 49 50
000
ASUS44 KMEG 041110
RWRTN
TENNESSEE HOURLY STATE WEATHER ROUNDUP
NATIONAL WEATHER SERVICE MEMPHIS TN
600 AM CDT SAT JUL 04 2015

TNZ002-004-019-021-049-052-054-088>092-041200-
WEST TENNESSEE

CITY           SKY/WX    TMP DP  RH WIND       PRES   REMARKS
MEMPHIS INTL   CLOUDY    73  70  90 SW6       29.96R
NWS MEMPHIS      N/A     71 N/A N/A MISG        N/A
JACKSON        CLOUDY    72  69  90 SW3       29.96R
DYERSBURG        N/A    N/A N/A N/A MISG        N/A
PARIS          CLOUDY    70  68  94 CALM      29.96R
LEXINGTON      CLOUDY    70  70 100 S3        29.95R
$$

TNZ008-025-027-028-033-062-065-066-041200-
NORTH MIDDLE TENNESSEE

CITY           SKY/WX    TMP DP  RH WIND       PRES   REMARKS
NASHVILLE      CLOUDY    71  70  96 CALM      29.97R
CLARKSVILLE    LGT RAIN  71  70  96 NW5       29.95R FOG
SMYRNA         CLOUDY    71  69  93 CALM      29.97R
COOKEVILLE     CLOUDY    70  70 100 SW3       29.98R
CROSSVILLE     CLOUDY    68  65  90 CALM      30.02R FOG
$$

TNZ061-075-076-078-094-096-097-041200-
SOUTH MIDDLE TENNESSEE

CITY           SKY/WX    TMP DP  RH WIND       PRES   REMARKS
FAYETTEVILLE     N/A     66  66 100 SW6       30.01R
TULLAHOMA      CLOUDY    66  66 100 SW7       30.01R
WINCHESTER     CLOUDY    68  66  94 SW7       30.01R
MCMINNVILLE    CLOUDY    68  68 100 SW6       29.99R
COLUMBIA       CLOUDY    72  72 100 SW8       29.96R
SHELBYVILLE    CLOUDY    70  70 100 SW9         N/A
$$

TNZ017-018-042-046-047-041200-
NORTHEAST TENNESSEE

CITY           SKY/WX    TMP DP  RH WIND       PRES   REMARKS
TRI CITIES     LGT RAIN  68  66  93 SW9       30.00R FOG
ELIZABETHTON   PTSUNNY   66  63  88 W5        30.01S
$$

TNZ012-013-036-069-073-074-041200-
CENTRAL EAST TENNESSEE

CITY           SKY/WX    TMP DP  RH WIND       PRES   REMARKS
KNOXVILLE      CLOUDY    69  67  93 SW6       29.98R
OAK RIDGE      CLOUDY    70  66  87 CALM      30.00R
GATLINBURG     MOSUNNY   68  64  88 SW3       29.99R
MORRISTOWN     MOSUNNY   68  66  94 SW8       30.01S
$$

TNZ083-085-099-041200-
SOUTHEAST TENNESSEE

CITY           SKY/WX    TMP DP  RH WIND       PRES   REMARKS
CHATTANOOGA    DRIZZLE   69  67  93 S3        30.00R FOG
$$

SKY/WX REPORTED AS FAIR MEANS FEW OR NO CLOUDS BELOW
12 THOUSAND FEET.



USA.gov is the U.S. government's official web portal to all federal, state and local government web resources and services.